QPF
0.01 0.02 0.01 0.00 0.00 0.02 0.06 0.04 0.02 0.01 0.01 0.01 0.00 0.00 0.00 0.00 0.00 0.00 0.00 0.00 0.00 0.00 0.00 0.00 0.00 0.00 0.00 0.00 0.00 0.00 0.00 0.00 0.00 0.00 0.00 0.00 0.00 0.00 0.00 0.00 0.00 0.00 0.00 0.00
0.00 0.01 0.00 0.00 0.00 0.02 0.06 0.04 0.02 0.02 0.04 0.02 0.00 0.00 0.00 0.00 0.00 0.00 0.00 0.00 0.00 0.01 0.00 0.01 0.00 0.00 0.00 0.00 0.00 0.00 0.01 0.01 0.00 0.00 0.00 0.00 0.00 0.00 0.00 0.00 0.00 0.00 0.01 0.00
0.00 0.00 0.00 0.00 0.00 0.01 0.06 0.05 0.03 0.02 0.03 0.01 0.01 0.00 0.00 0.00 0.00 0.00 0.00 0.00 0.00 0.00 0.00 0.00 0.00 0.00 0.00 0.00 0.00 0.00 0.00 0.01 0.01 0.01 0.00 0.00 0.00 0.00 0.00 0.00 0.00 0.00 0.00 0.00
0.00 0.00 0.00 0.00 0.00 0.01 0.04 0.05 0.02 0.02 0.02 0.00 0.00 0.01 0.01 0.00 0.00 0.00 0.00 0.00 0.00 0.00 0.00 0.00 0.00 0.00 0.00 0.00 0.00 0.00 0.01 0.01 0.01 0.00 0.00 0.01 0.01 0.00 0.00 0.00 0.00 0.00 0.00 0.00
0.00 0.00 0.01 0.01 0.00 0.01 0.03 0.01 0.02 0.01 0.01 0.01 0.01 0.01 0.01 0.00 0.00 0.00 0.01 0.01 0.00 0.02 0.02 0.01 0.01 0.01 0.01 0.00 0.00 0.00 0.03 0.02 0.01 0.00 0.00 0.00 0.01 0.00 0.00 0.00 0.00 0.00 0.00 0.00
0.00 0.01 0.01 0.01 0.01 0.01 0.01 0.02 0.01 0.01 0.01 0.01 0.02 0.01 0.01 0.01 0.01 0.00 0.00 0.00 0.01 0.01 0.01 0.01 0.01 0.01 0.00 0.00 0.00 0.00 0.01 0.01 0.02 0.01 0.00 0.00 0.01 0.00 0.00 0.00 0.00 0.00 0.00 0.00
0.02 0.01 0.00 0.00 0.01 0.01 0.00 0.01 0.03 0.03 0.01 0.02 0.02 0.01 0.01 0.01 0.01 0.01 0.01 0.02 0.02 0.02 0.00 0.00 0.00 0.00 0.00 0.00 0.00 0.00 0.00 0.01 0.04 0.02 0.01 0.02 0.00 0.00 0.00 0.00 0.00 0.00 0.00 0.00
0.04 0.03 0.01 0.00 0.00 0.01 0.00 0.00 0.01 0.01 0.00 0.00 0.00 0.00 0.00 0.00 0.01 0.01 0.01 0.00 0.01 0.03 0.01 0.01 0.02 0.01 0.00 0.00 0.00 0.00 0.00 0.02 0.03 0.02 0.01 0.01 0.00 0.00 0.00 0.00 0.00 0.00 0.00 0.00
0.05 0.04 0.02 0.01 0.01 0.01 0.02 0.00 0.00 0.00 0.00 0.00 0.00 0.00 0.00 0.00 0.00 0.00 0.00 0.00 0.00 0.01 0.02 0.03 0.03 0.01 0.00 0.00 0.01 0.01 0.01 0.02 0.02 0.02 0.03 0.02 0.00 0.00 0.00 0.00 0.00 0.00 0.00 0.00
0.03 0.04 0.04 0.03 0.02 0.02 0.02 0.01 0.00 0.00 0.00 0.00 0.00 0.00 0.00 0.00 0.00 0.01 0.01 0.01 0.03 0.03 0.02 0.02 0.01 0.01 0.01 0.01 0.01 0.02 0.03 0.03 0.02 0.02 0.04 0.01 0.00 0.00 0.00 0.00 0.00 0.00 0.00 0.00
0.02 0.02 0.02 0.04 0.03 0.02 0.01 0.01 0.01 0.00 0.00 0.00 0.00 0.00 0.00 0.00 0.00 0.00 0.00 0.00 0.01 0.01 0.02 0.03 0.04 0.03 0.02 0.01 0.00 0.01 0.01 0.03 0.02 0.04 0.03 0.02 0.00 0.00 0.00 0.00 0.00 0.00 0.00 0.00
0.02 0.02 0.01 0.01 0.02 0.02 0.03 0.01 0.01 0.02 0.01 0.00 0.00 0.00 0.00 0.00 0.00 0.00 0.00 0.00 0.00 0.01 0.01 0.01 0.01 0.02 0.02 0.01 0.02 0.00 0.01 0.01 0.02 0.03 0.05 0.02 0.00 0.00 0.00 0.00 0.00 0.00 0.00 0.00
0.01 0.03 0.03 0.02 0.01 0.01 0.03 0.01 0.01 0.02 0.01 0.00 0.00 0.00 0.00 0.00 0.00 0.00 0.00 0.00 0.00 0.00 0.03 0.03 0.02 0.02 0.01 0.02 0.01 0.00 0.00 0.00 0.01 0.01 0.00 0.00 0.00 0.00 0.00 0.00 0.00 0.00 0.00 0.00
0.04 0.05 0.05 0.04 0.02 0.01 0.03 0.01 0.00 0.00 0.00 0.00 0.00 0.00 0.00 0.00 0.00 0.00 0.00 0.00 0.00 0.01 0.04 0.03 0.03 0.01 0.00 0.01 0.01 0.00 0.00 0.00 0.00 0.00 0.00 0.00 0.00 0.00 0.00 0.00 0.00 0.00 0.00 0.00
0.05 0.06 0.06 0.04 0.02 0.03 0.04 0.02 0.01 0.01 0.00 0.00 0.00 0.00 0.00 0.00 0.00 0.00 0.00 0.00 0.00 0.00 0.01 0.01 0.01 0.01 0.01 0.01 0.00 0.00 0.00 0.00 0.00 0.00 0.00 0.00 0.00 0.00 0.00 0.00 0.00 0.00 0.00 0.01
0.06 0.04 0.03 0.02 0.02 0.04 0.02 0.02 0.01 0.01 0.02 0.02 0.01 0.00 0.00 0.00 0.00 0.00 0.00 0.00 0.00 0.01 0.01 0.01 0.00 0.01 0.01 0.01 0.00 0.00 0.00 0.00 0.00 0.00 0.00 0.00 0.00 0.00 0.00 0.00 0.00 0.00 0.01 0.01
0.06 0.04 0.02 0.01 0.03 0.01 0.00 0.00 0.00 0.00 0.03 0.03 0.02 0.00 0.00 0.00 0.00 0.00 0.00 0.01 0.01 0.01 0.01 0.01 0.01 0.01 0.01 0.01 0.00 0.00 0.00 0.00 0.00 0.00 0.00 0.00 0.00 0.00 0.00 0.00 0.00 0.00 0.00 0.00
0.02 0.01 0.01 0.03 0.03 0.02 0.00 0.00 0.00 0.01 0.02 0.02 0.03 0.00 0.00 0.02 0.02 0.01 0.01 0.01 0.02 0.02 0.01 0.01 0.00 0.00 0.01 0.00 0.00 0.00 0.00 0.00 0.00 0.00 0.00 0.00 0.00 0.00 0.00 0.00 0.00 0.00 0.00 0.00
0.01 0.02 0.02 0.03 0.01 0.01 0.00 0.00 0.00 0.01 0.01 0.02 0.02 0.00 0.00 0.02 0.02 0.01 0.00 0.00 0.01 0.01 0.01 0.01 0.01 0.01 0.00 0.00 0.00 0.00 0.00 0.00 0.00 0.00 0.00 0.00 0.00 0.00 0.00 0.00 0.00 0.00 0.00 0.00
0.01 0.00 0.00 0.00 0.00 0.00 0.01 0.03 0.02 0.01 0.01 0.01 0.01 0.01 0.01 0.02 0.02 0.01 0.01 0.00 0.01 0.01 0.01 0.01 0.01 0.00 0.00 0.00 0.00 0.00 0.00 0.00 0.00 0.00 0.00 0.00 0.00 0.00 0.00 0.00 0.00 0.00 0.00 0.00
0.00 0.00 0.00 0.00 0.01 0.01 0.01 0.00 0.01 0.00 0.00 0.00 0.00 0.00 0.00 0.00 0.01 0.01 0.00 0.00 0.00 0.01 0.00 0.00 0.00 0.00 0.00 0.00 0.00 0.00 0.00 0.00 0.00 0.00 0.00 0.00 0.00 0.00 0.00 0.00 0.00 0.00 0.00 0.00
0.00 0.00 0.00 0.01 0.01 0.00 0.00 0.00 0.01 0.00 0.00 0.00 0.00 0.00 0.00 0.00 0.00 0.00 0.00 0.00 0.00 0.00 0.00 0.00 0.00 0.00 0.00 0.00 0.00 0.00 0.00 0.00 0.00 0.00 0.00 0.00 0.00 0.00 0.00 0.00 0.00 0.00 0.00 0.00
0.00 0.00 0.00 0.00 0.00 0.01 0.00 0.00 0.00 0.00 0.00 0.00 0.00 0.01 0.02 0.01 0.00 0.00 0.00 0.00 0.00 0.00 0.00 0.00 0.00 0.00 0.00 0.00 0.00 0.00 0.00 0.00 0.00 0.00 0.00 0.00 0.00 0.00 0.00 0.00 0.00 0.00 0.00 0.00
0.00 0.00 0.00 0.00 0.00 0.00 0.00 0.00 0.00 0.00 0.00 0.00 0.01 0.02 0.01 0.01 0.00 0.00 0.00 0.00 0.00 0.00 0.00 0.00 0.00 0.00 0.00 0.00 0.00 0.00 0.00 0.00 0.00 0.00 0.00 0.00 0.00 0.00 0.00 0.00 0.00 0.00 0.00 0.00
0.00 0.00 0.00 0.00 0.00 0.00 0.00 0.00 0.00 0.00 0.00 0.00 0.00 0.00 0.00 0.00 0.00 0.00 0.00 0.00 0.00 0.00 0.00 0.00 0.00 0.00 0.00 0.00 0.00 0.00 0.00 0.00 0.00 0.00 0.00 0.00 0.00 0.00 0.00 0.00 0.00 0.00 0.00 0.00
0.00 0.00 0.00 0.00 0.00 0.00 0.00 0.00 0.00 0.00 0.00 0.00 0.00 0.00 0.00 0.00 0.00 0.00 0.00 0.00 0.00 0.00 0.00 0.00 0.00 0.00 0.00 0.00 0.00 0.00 0.00 0.00 0.00 0.00 0.00 0.00 0.00 0.00 0.00 0.00 0.00 0.00 0.00 0.00
0.00 0.00 0.00 0.00 0.00 0.00 0.00 0.00 0.00 0.00 0.00 0.00 0.00 0.00 0.00 0.00 0.00 0.00 0.00 0.00 0.00 0.00 0.00 0.00 0.00 0.00 0.00 0.00 0.00 0.00 0.00 0.00 0.00 0.00 0.00 0.00 0.00 0.00 0.00 0.00 0.00 0.00 0.00 0.00
MSLP
1015.14 1015.53 1015.84 1016.02 1015.91 1016.04 1016.30 1016.05 1016.32 1016.12 1016.46 1017.18 1016.41 1015.04 1014.03 1013.52 1013.07 1013.27 1013.16 1013.15 1013.03 1013.02 1013.10 1012.60 1012.14 1011.32 1011.48 1011.84 1011.91 1011.56 1011.94 1012.03 1009.90 1007.86 1007.14 1006.45 1006.53 1005.95 1005.92 1006.14 1005.83 1005.65 1005.03 1003.53
1015.04 1015.33 1015.53 1015.69 1015.84 1015.76 1016.07 1015.66 1015.90 1016.35 1016.08 1015.53 1015.18 1014.59 1014.31 1013.92 1013.30 1013.16 1013.14 1013.17 1012.69 1012.68 1012.90 1012.48 1011.63 1011.17 1011.22 1011.83 1011.59 1011.97 1012.76 1012.33 1010.61 1008.37 1007.40 1006.77 1006.90 1006.83 1006.85 1007.32 1006.99 1006.27 1005.99 1003.70
1014.57 1014.82 1015.31 1015.40 1015.50 1015.63 1015.83 1015.83 1015.63 1015.83 1015.69 1015.10 1014.42 1014.08 1013.70 1013.62 1013.21 1013.24 1013.16 1013.06 1013.11 1012.87 1012.75 1012.76 1011.95 1011.46 1011.21 1011.67 1012.01 1012.88 1013.55 1012.71 1012.00 1010.68 1008.92 1009.01 1008.65 1007.70 1008.23 1008.62 1008.03 1005.97 1005.38 1004.24
1014.26 1014.56 1014.67 1015.12 1015.26 1015.32 1015.70 1015.17 1014.54 1014.51 1014.77 1014.63 1014.43 1013.80 1013.61 1013.12 1012.81 1013.12 1013.03 1012.95 1012.81 1012.36 1012.35 1012.17 1011.63 1011.68 1011.25 1011.30 1011.72 1012.17 1012.81 1012.18 1012.03 1011.05 1010.15 1009.45 1009.15 1008.65 1008.22 1008.36 1007.74 1006.82 1005.51 1004.56
1013.66 1014.02 1014.43 1014.57 1014.78 1015.01 1015.48 1014.82 1014.62 1014.64 1013.83 1014.05 1014.04 1014.18 1013.25 1012.96 1012.31 1012.89 1012.44 1012.51 1012.05 1012.07 1012.02 1011.75 1011.20 1011.15 1011.11 1010.60 1011.13 1011.52 1011.67 1011.55 1011.38 1010.72 1009.72 1009.34 1008.75 1007.89 1007.35 1007.19 1006.41 1005.74 1004.97 1003.26
1013.06 1013.49 1013.57 1014.09 1014.38 1014.55 1014.30 1014.62 1014.78 1014.52 1013.61 1013.34 1013.68 1013.45 1013.55 1013.22 1013.26 1013.30 1012.48 1012.71 1012.75 1012.22 1011.69 1011.85 1011.93 1011.81 1011.52 1011.09 1010.97 1011.11 1011.31 1011.42 1011.25 1010.03 1009.04 1008.40 1007.65 1006.20 1006.00 1005.08 1004.41 1004.34 1003.69 1001.97
1012.29 1012.67 1013.12 1013.45 1013.86 1014.18 1013.92 1013.80 1014.01 1014.17 1013.74 1013.68 1013.14 1013.37 1013.52 1013.30 1013.28 1013.35 1013.23 1013.17 1012.80 1012.45 1012.82 1013.00 1012.52 1012.28 1011.22 1010.58 1010.18 1010.68 1010.73 1011.05 1011.08 1009.85 1008.80 1006.90 1005.00 1004.15 1003.68 1003.26 1002.73 1002.47 1002.63 1001.20
1011.48 1011.95 1012.41 1012.92 1013.35 1013.85 1014.01 1013.93 1013.76 1013.87 1013.32 1013.12 1013.46 1013.70 1013.63 1013.46 1013.01 1013.13 1012.73 1012.44 1012.21 1012.73 1013.04 1013.32 1012.01 1011.04 1010.39 1009.04 1008.56 1009.02 1009.48 1009.90 1009.87 1009.31 1007.59 1005.63 1004.28 1003.34 1002.72 1002.83 1001.60 1001.16 1000.95 1000.60
1010.78 1011.33 1011.85 1012.31 1012.70 1013.26 1013.81 1013.80 1014.01 1014.00 1013.64 1012.71 1012.94 1013.08 1012.95 1012.89 1012.80 1012.47 1011.85 1011.86 1012.20 1012.74 1012.58 1012.82 1011.69 1009.99 1008.84 1007.75 1007.42 1008.03 1008.36 1008.88 1009.44 1008.24 1007.04 1004.84 1002.91 1002.86 1002.72 1002.35 1001.20 1000.95 1000.49 1000.27
1010.12 1010.64 1011.22 1011.76 1012.30 1012.80 1013.42 1013.53 1013.83 1014.02 1013.81 1013.12 1013.24 1012.84 1012.70 1012.92 1013.00 1012.87 1013.11 1013.63 1012.81 1012.30 1012.02 1012.02 1010.94 1009.56 1008.56 1007.51 1006.80 1007.22 1007.83 1008.31 1008.01 1007.36 1006.56 1005.27 1003.52 1003.24 1003.12 1002.83 1002.63 1001.80 1001.28 1000.69
1009.08 1009.93 1010.78 1010.93 1011.81 1012.36 1013.01 1013.18 1013.59 1013.57 1013.50 1013.12 1013.39 1013.20 1012.99 1012.79 1012.82 1012.91 1013.34 1013.70 1013.38 1012.93 1011.36 1011.18 1010.67 1009.63 1008.22 1007.47 1006.60 1006.45 1006.35 1006.63 1006.22 1006.16 1005.70 1004.70 1004.54 1003.86 1003.89 1004.13 1003.40 1003.12 1002.50 1001.90
1008.34 1009.26 1010.12 1010.82 1011.73 1012.22 1012.72 1012.87 1013.42 1013.82 1013.83 1013.30 1013.50 1013.37 1013.36 1013.26 1013.10 1013.17 1013.19 1012.88 1012.75 1012.88 1013.03 1013.00 1012.17 1011.36 1010.64 1008.13 1006.67 1006.30 1006.42 1005.62 1005.14 1005.19 1004.59 1004.79 1005.02 1005.15 1005.06 1004.91 1004.73 1003.91 1003.67 1002.62
1007.67 1008.59 1009.50 1010.53 1011.43 1012.20 1012.51 1012.62 1013.27 1013.85 1013.60 1013.21 1013.02 1012.66 1012.71 1013.00 1012.90 1013.03 1013.14 1012.77 1013.10 1012.86 1012.76 1012.81 1012.15 1011.48 1010.89 1008.11 1006.87 1006.06 1005.52 1005.34 1005.24 1005.18 1004.46 1004.42 1004.59 1005.10 1005.64 1005.61 1004.90 1004.23 1003.76 1003.24
1007.06 1008.04 1008.95 1009.89 1010.76 1011.59 1012.30 1012.52 1013.03 1013.13 1013.03 1012.64 1011.56 1011.66 1011.97 1011.93 1012.18 1012.32 1012.55 1012.75 1012.76 1012.87 1012.86 1012.81 1011.95 1011.14 1010.32 1008.82 1007.78 1006.32 1005.27 1005.17 1004.61 1004.17 1004.03 1004.04 1004.33 1004.80 1004.96 1005.14 1004.48 1003.93 1003.46 1003.42
1006.65 1007.58 1008.48 1009.39 1010.31 1011.26 1012.03 1012.55 1012.81 1012.81 1012.81 1012.12 1011.67 1011.49 1011.20 1011.37 1011.24 1011.45 1011.74 1012.14 1012.36 1012.50 1012.45 1012.05 1011.34 1010.61 1010.56 1008.81 1007.26 1006.01 1005.06 1004.48 1004.16 1003.81 1003.68 1003.84 1003.98 1004.12 1004.19 1004.15 1004.06 1003.65 1003.54 1003.45
1006.47 1007.42 1008.40 1009.36 1010.42 1011.42 1012.16 1012.61 1012.63 1012.64 1013.06 1012.98 1011.61 1010.29 1010.00 1009.82 1009.99 1010.33 1010.63 1011.01 1011.62 1011.92 1011.56 1011.22 1010.35 1010.00 1009.70 1007.56 1005.87 1005.14 1004.51 1004.05 1003.95 1003.72 1003.72 1003.99 1004.17 1004.03 1003.95 1003.88 1003.68 1003.59 1003.55 1003.50
1006.70 1008.06 1008.87 1009.76 1010.42 1011.13 1011.39 1011.75 1011.87 1012.14 1012.99 1013.21 1011.77 1009.67 1008.72 1008.79 1008.96 1009.40 1009.87 1010.46 1010.95 1011.07 1010.86 1010.20 1009.55 1008.97 1009.07 1007.08 1004.92 1004.47 1004.10 1003.79 1003.66 1003.64 1004.07 1003.86 1003.64 1003.40 1003.30 1003.45 1003.38 1003.50 1003.53 1003.50
1007.04 1008.01 1009.06 1009.76 1010.67 1011.41 1011.61 1011.78 1011.92 1012.40 1013.02 1013.00 1011.59 1009.65 1008.81 1008.22 1008.39 1008.72 1009.09 1009.71 1010.21 1009.97 1008.98 1008.68 1008.41 1008.43 1008.08 1005.68 1003.95 1003.69 1003.49 1003.54 1003.44 1003.48 1003.58 1003.61 1003.56 1003.48 1003.57 1003.42 1003.37 1003.38 1003.37 1003.34
1007.62 1008.44 1009.39 1010.54 1010.96 1011.11 1011.01 1011.91 1012.43 1012.74 1013.15 1012.00 1010.80 1009.26 1008.29 1008.40 1008.32 1008.57 1008.74 1008.52 1008.51 1008.36 1007.98 1007.53 1007.58 1006.63 1005.25 1003.81 1003.41 1002.92 1003.10 1003.38 1003.39 1003.37 1003.38 1003.26 1003.34 1003.23 1003.22 1003.30 1003.24 1003.33 1003.28 1003.39
1008.29 1009.10 1009.55 1010.57 1010.70 1011.15 1011.44 1012.32 1012.60 1012.67 1012.34 1011.92 1010.02 1008.95 1008.28 1008.30 1008.35 1008.15 1008.08 1007.08 1006.51 1006.52 1006.19 1006.11 1005.72 1003.97 1003.41 1002.86 1002.81 1002.86 1003.11 1003.27 1003.49 1003.51 1003.08 1003.15 1003.31 1003.38 1003.35 1003.60 1003.76 1003.80 1003.96 1004.07
1008.52 1009.24 1009.67 1010.51 1010.91 1010.83 1011.13 1011.40 1011.62 1011.38 1010.79 1009.54 1008.01 1007.57 1007.05 1007.47 1007.89 1008.05 1007.59 1005.83 1005.64 1005.18 1005.22 1004.58 1003.98 1002.76 1002.40 1002.27 1002.21 1002.76 1003.11 1003.42 1003.53 1003.69 1003.70 1003.96 1004.29 1004.34 1004.27 1004.31 1004.63 1004.73 1004.68 1004.58
1008.60 1008.85 1009.95 1010.50 1010.65 1010.66 1010.90 1010.41 1009.71 1009.31 1007.86 1006.74 1006.53 1006.12 1006.35 1006.65 1007.00 1006.57 1006.31 1005.73 1005.37 1004.66 1004.73 1004.04 1002.86 1001.77 1001.81 1001.92 1002.30 1002.90 1003.54 1003.93 1004.16 1004.35 1004.50 1004.90 1005.14 1005.20 1005.32 1005.16 1005.31 1005.51 1005.41 1005.29
1008.87 1009.16 1009.85 1009.77 1009.95 1009.77 1009.32 1008.23 1007.52 1006.99 1006.55 1006.15 1005.83 1005.45 1005.21 1005.98 1006.07 1005.75 1005.62 1005.32 1005.07 1004.81 1004.20 1003.20 1001.94 1001.66 1001.85 1002.23 1002.72 1003.64 1004.30 1004.63 1004.75 1004.93 1005.18 1005.44 1005.60 1005.90 1006.01 1005.70 1005.65 1005.71 1005.38 1005.28
1008.68 1009.06 1009.21 1009.26 1008.43 1007.95 1007.18 1006.61 1006.25 1006.17 1006.03 1005.72 1005.27 1004.76 1004.74 1004.83 1005.11 1005.20 1005.01 1005.25 1004.79 1004.06 1003.53 1002.31 1001.49 1001.79 1002.27 1002.90 1003.65 1004.27 1004.83 1005.10 1005.30 1005.48 1005.64 1005.77 1006.02 1006.00 1005.97 1005.87 1005.90 1005.68 1005.29 1005.12
1008.83 1008.97 1008.50 1008.01 1007.50 1007.26 1006.98 1006.69 1006.34 1005.80 1005.58 1005.43 1005.22 1004.78 1004.49 1004.42 1004.68 1004.66 1004.69 1004.66 1003.97 1003.40 1002.51 1002.18 1002.16 1002.53 1003.10 1003.58 1003.97 1004.35 1004.74 1005.22 1005.40 1005.51 1005.64 1005.65 1005.74 1005.76 1005.73 1005.73 1005.69 1005.70 1005.50 1005.26
1008.87 1008.39 1007.97 1007.43 1007.35 1006.58 1006.46 1006.13 1005.66 1005.44 1005.28 1005.37 1004.90 1004.29 1004.12 1003.97 1003.96 1003.97 1003.75 1003.57 1003.09 1002.75 1002.61 1002.57 1002.96 1003.32 1003.67 1004.15 1004.47 1004.84 1005.27 1005.39 1005.30 1005.31 1005.34 1005.36 1005.45 1005.44 1005.40 1005.50 1005.49 1005.62 1005.58 1005.35
1008.01 1007.29 1007.50 1007.47 1006.98 1006.40 1006.08 1006.04 1005.42 1005.44 1005.07 1004.63 1004.28 1003.95 1003.88 1004.09 1003.67 1003.52 1003.39 1003.12 1002.78 1002.71 1002.75 1002.99 1003.18 1003.54 1003.85 1004.37 1004.69 1004.87 1005.15 1005.12 1005.11 1005.04 1005.00 1004.98 1005.14 1005.31 1005.26 1005.21 1005.23 1005.53 1005.55 1005.44
Thickness
5401 5403 5406 5409 5414 5415 5415 5422 5430 5438 5433 5426 5421 5459 5483 5488 5490 5485 5488 5489 5487 5485 5490 5489 5496 5511 5509 5516 5514 5512 5513 5505 5527 5551 5560 5566 5564 5566 5568 5550 5548 5558 5552 5565
5377 5380 5387 5391 5391 5395 5395 5400 5410 5412 5416 5426 5428 5449 5454 5460 5468 5470 5471 5470 5481 5487 5485 5483 5499 5505 5507 5504 5506 5503 5489 5496 5511 5539 5552 5547 5543 5550 5550 5538 5534 5533 5525 5554
5358 5363 5366 5372 5374 5376 5377 5380 5386 5394 5393 5407 5432 5437 5442 5439 5452 5451 5456 5458 5462 5467 5468 5470 5473 5487 5492 5491 5487 5481 5465 5471 5484 5503 5518 5508 5506 5524 5521 5510 5505 5526 5532 5546
5341 5344 5350 5353 5356 5360 5361 5368 5379 5391 5390 5395 5398 5423 5422 5433 5434 5439 5442 5442 5447 5455 5449 5459 5462 5470 5477 5478 5478 5475 5466 5458 5475 5486 5494 5499 5500 5497 5507 5502 5506 5499 5524 5527
5332 5335 5335 5340 5344 5345 5345 5356 5366 5372 5398 5392 5391 5391 5404 5423 5437 5422 5433 5433 5448 5446 5441 5453 5460 5460 5464 5471 5471 5470 5470 5458 5473 5473 5489 5487 5486 5495 5503 5504 5511 5511 5516 5529
5324 5326 5330 5330 5332 5336 5345 5348 5350 5356 5377 5389 5388 5389 5397 5398 5405 5398 5423 5418 5415 5427 5442 5440 5441 5442 5449 5457 5459 5459 5458 5454 5454 5462 5486 5480 5462 5489 5494 5508 5514 5510 5505 5538
5319 5321 5321 5324 5324 5327 5336 5344 5346 5348 5360 5366 5380 5381 5385 5390 5390 5392 5396 5399 5401 5418 5413 5412 5417 5423 5440 5448 5457 5451 5447 5443 5441 5449 5467 5448 5501 5517 5514 5513 5520 5518 5511 5532
5317 5317 5317 5317 5318 5320 5323 5328 5335 5338 5352 5364 5355 5359 5365 5374 5387 5383 5392 5402 5410 5404 5402 5396 5412 5427 5429 5454 5462 5457 5454 5449 5436 5440 5466 5482 5494 5507 5506 5497 5512 5521 5520 5527
5316 5315 5315 5314 5315 5314 5315 5320 5322 5328 5336 5355 5360 5358 5363 5366 5372 5381 5397 5401 5399 5396 5401 5395 5404 5430 5452 5459 5461 5456 5454 5444 5425 5443 5444 5467 5502 5496 5498 5500 5500 5513 5517 5518
5312 5314 5314 5313 5312 5312 5311 5314 5315 5318 5321 5341 5344 5350 5353 5357 5357 5365 5364 5361 5381 5392 5397 5398 5418 5434 5450 5446 5458 5453 5440 5428 5433 5446 5438 5449 5487 5487 5488 5482 5491 5494 5500 5506
5312 5311 5310 5314 5309 5309 5309 5311 5310 5315 5317 5328 5328 5334 5339 5346 5351 5353 5358 5359 5363 5369 5400 5404 5405 5422 5443 5443 5456 5454 5455 5442 5451 5447 5443 5459 5467 5474 5471 5465 5472 5472 5480 5486
5310 5309 5308 5308 5305 5304 5302 5306 5304 5304 5308 5319 5318 5322 5326 5331 5337 5341 5346 5359 5367 5367 5360 5359 5379 5386 5379 5418 5429 5449 5433 5452 5458 5454 5460 5455 5451 5448 5451 5451 5450 5460 5460 5475
5308 5306 5305 5302 5301 5299 5299 5301 5298 5296 5302 5310 5314 5318 5319 5321 5327 5330 5333 5347 5350 5356 5363 5361 5374 5377 5380 5415 5430 5439 5446 5448 5442 5440 5454 5454 5451 5437 5428 5433 5444 5452 5458 5463
5307 5304 5302 5300 5299 5297 5294 5296 5294 5295 5301 5301 5320 5320 5318 5321 5322 5326 5329 5334 5341 5346 5351 5349 5361 5374 5388 5401 5404 5427 5442 5439 5443 5448 5452 5452 5447 5438 5433 5430 5444 5451 5456 5456
5306 5303 5301 5298 5296 5293 5290 5287 5288 5291 5295 5301 5306 5313 5317 5317 5322 5324 5326 5329 5333 5337 5342 5350 5361 5375 5368 5386 5413 5422 5437 5437 5436 5437 5448 5446 5445 5443 5441 5438 5441 5446 5448 5448
5303 5300 5297 5294 5291 5286 5283 5281 5285 5285 5283 5283 5298 5319 5321 5323 5325 5326 5329 5332 5331 5334 5344 5350 5368 5378 5377 5404 5419 5429 5434 5438 5438 5440 5441 5437 5434 5437 5437 5436 5439 5440 5439 5442
5298 5292 5291 5287 5286 5284 5287 5290 5288 5282 5277 5273 5291 5315 5328 5326 5327 5328 5329 5330 5327 5331 5339 5353 5369 5380 5374 5398 5419 5423 5432 5435 5435 5436 5431 5431 5436 5436 5440 5437 5437 5433 5433 5434
5292 5288 5284 5283 5279 5277 5280 5279 5278 5274 5270 5270 5283 5303 5310 5321 5324 5326 5332 5326 5326 5336 5354 5365 5371 5375 5378 5396 5424 5427 5433 5430 5430 5431 5431 5429 5430 5429 5426 5428 5428 5427 5428 5430
5286 5283 5279 5274 5275 5274 5277 5271 5268 5264 5264 5272 5282 5301 5306 5311 5319 5322 5327 5334 5340 5349 5351 5365 5372 5381 5391 5415 5419 5432 5429 5424 5425 5427 5426 5427 5424 5424 5423 5422 5421 5419 5420 5420
5280 5277 5277 5267 5272 5269 5269 5262 5259 5258 5263 5266 5288 5304 5306 5314 5318 5331 5337 5348 5361 5362 5371 5376 5376 5404 5417 5423 5423 5423 5421 5421 5420 5416 5425 5423 5419 5418 5415 5411 5409 5406 5404 5402
5276 5271 5273 5268 5265 5269 5267 5265 5263 5268 5273 5290 5307 5313 5319 5322 5321 5322 5335 5359 5360 5371 5371 5388 5389 5406 5414 5420 5424 5418 5414 5414 5414 5411 5409 5404 5399 5397 5397 5394 5389 5385 5386 5387
5275 5276 5268 5266 5267 5267 5264 5269 5285 5287 5307 5322 5320 5329 5329 5331 5325 5339 5344 5353 5360 5371 5373 5381 5393 5409 5413 5416 5415 5411 5406 5402 5397 5392 5390 5382 5376 5373 5371 5370 5368 5365 5365 5365
5278 5277 5270 5276 5278 5278 5283 5296 5311 5317 5322 5327 5330 5336 5345 5335 5338 5346 5351 5359 5365 5367 5371 5383 5406 5411 5412 5411 5408 5398 5391 5386 5383 5378 5372 5364 5354 5346 5344 5348 5351 5352 5356 5358
5286 5284 5285 5283 5296 5304 5316 5327 5331 5330 5327 5332 5341 5345 5350 5353 5351 5353 5361 5354 5365 5372 5370 5393 5411 5408 5405 5399 5391 5384 5373 5368 5364 5361 5352 5345 5340 5338 5336 5338 5340 5345 5351 5353
5293 5291 5296 5305 5314 5313 5317 5321 5322 5330 5333 5337 5338 5345 5356 5359 5352 5358 5359 5355 5363 5374 5390 5395 5398 5395 5389 5384 5381 5377 5371 5359 5352 5349 5345 5340 5338 5336 5335 5336 5337 5339 5341 5345
5298 5304 5308 5320 5316 5327 5324 5327 5332 5336 5337 5335 5343 5354 5359 5363 5365 5364 5368 5372 5374 5383 5384 5387 5381 5375 5372 5366 5364 5360 5354 5351 5349 5347 5343 5341 5336 5334 5336 5334 5334 5334 5334 5338
5314 5321 5312 5313 5323 5329 5330 5326 5338 5335 5340 5345 5354 5356 5358 5356 5361 5364 5369 5369 5379 5379 5377 5373 5371 5368 5364 5353 5351 5350 5345 5346 5346 5344 5340 5338 5335 5331 5332 5333 5334 5330 5330 5331